Date,TemperatureHighF,TemperatureAvgF,TemperatureLowF,DewpointHighF,DewpointAvgF,DewpointLowF,HumidityHigh,HumidityAvg,HumidityLow,PressureMaxIn,PressureMinIn,WindSpeedMaxMPH,WindSpeedAvgMPH,GustSpeedMaxMPH,PrecipitationSumIn
2013-1-1,46.2,41.2,36.3,45.3,38.2,29.8,97,89,77,30.27,30.02,22,10,22,0.01
2013-1-2,39.2,35.5,32.0,31.0,29.6,28.1,87,79,70,30.34,30.25,14,6,14,0.00
2013-1-3,46.9,38.4,28.8,33.0,29.5,25.5,89,71,52,30.46,30.32,17,6,17,0.00
2013-1-4,50.1,44.0,39.3,38.3,33.3,30.3,84,66,48,30.51,30.35,15,3,15,0.02
2013-1-5,51.6,43.9,38.6,41.3,38.8,36.3,95,83,65,30.37,30.21,13,4,13,0.01
2013-1-6,56.6,43.8,33.1,37.4,31.7,26.4,95,66,35,30.38,30.27,17,5,17,0.01
2013-1-7,53.2,43.8,33.6,37.6,31.6,25.6,76,62,50,30.32,30.09,20,5,20,0.00
2013-1-8,49.8,46.6,44.5,49.0,43.1,35.8,97,88,71,30.10,29.92,17,6,17,0.77
2013-1-9,57.7,53.4,49.0,57.1,52.8,48.2,98,98,97,30.08,29.91,30,11,30,2.24
2013-1-10,59.6,54.9,49.9,59.3,50.6,45.3,99,86,67,29.97,29.90,24,10,24,0.04
2013-1-11,71.1,59.0,47.6,62.0,52.4,43.8,92,79,54,29.95,29.76,31,14,31,0.00
2013-1-12,74.0,58.4,36.9,69.1,55.8,33.1,99,91,72,29.89,29.61,29,13,29,0.00
2013-1-13,43.4,36.4,30.0,33.5,27.7,22.7,85,71,54,30.26,29.88,28,15,28,0.01
2013-1-14,42.5,34.4,27.8,29.5,25.3,21.2,78,70,57,30.32,30.19,20,10,20,0.00
2013-1-15,36.0,32.9,29.7,32.9,28.7,23.3,96,85,67,30.23,30.13,25,9,25,0.05
2013-1-16,46.9,37.0,27.5,26.6,24.1,20.0,82,61,42,30.30,30.17,18,6,18,0.02
2013-1-17,58.5,46.2,35.7,37.6,31.6,24.5,70,57,41,30.48,30.24,20,6,20,0.00
2013-1-18,60.1,48.4,37.7,40.0,35.1,30.8,78,61,43,30.50,30.26,22,7,22,0.00
2013-1-19,60.6,50.2,37.7,47.6,42.4,35.3,93,75,59,30.27,30.14,24,9,24,0.00
2013-1-20,69.2,53.4,37.5,50.2,44.2,35.9,97,74,41,30.21,30.04,20,5,20,0.00
2013-1-21,56.2,47.7,39.5,45.8,38.7,32.8,94,72,53,30.26,30.08,18,6,18,0.00
2013-1-22,64.4,49.7,36.6,50.1,40.7,29.1,84,72,58,30.31,30.17,16,5,16,0.00
2013-1-23,70.4,60.2,50.8,57.5,53.2,47.8,93,78,63,30.27,30.10,26,12,27,0.00
2013-1-24,76.6,64.6,52.6,62.9,58.7,50.6,98,82,60,30.17,30.00,22,10,22,0.00
2013-1-25,63.5,53.1,48.6,59.1,49.3,42.6,95,87,79,30.16,29.99,18,7,18,0.00
2013-1-26,51.0,48.5,44.9,50.0,46.5,41.3,98,93,79,30.20,30.08,15,5,15,0.00
2013-1-27,74.7,63.0,50.3,64.6,58.7,49.8,99,87,62,30.09,29.91,31,12,31,0.01
2013-1-28,78.0,71.4,66.5,67.1,64.6,63.1,92,80,62,29.98,29.81,34,18,35,0.00
2013-1-29,77.3,67.3,53.9,67.2,60.6,35.6,91,80,51,29.83,29.40,44,19,44,0.13
2013-1-30,53.7,47.1,41.7,37.1,28.8,22.1,74,50,32,30.14,29.68,41,12,41,0.01
2013-1-31,67.2,50.9,37.9,33.1,26.8,22.6,65,42,20,30.27,30.09,29,11,29,0.00
2013-2-1,59.7,46.4,30.7,39.9,32.0,21.3,70,58,42,30.36,30.14,22,9,22,0.00
2013-2-2,66.6,56.0,46.2,49.4,40.8,33.1,84,59,37,30.29,30.14,18,7,18,0.00
2013-2-3,66.8,56.3,44.1,41.5,34.1,29.2,67,45,26,30.29,29.96,17,6,17,0.00
2013-2-4,69.0,59.1,50.9,58.9,49.4,33.1,96,72,42,29.96,29.76,23,10,23,0.13
2013-2-5,71.3,61.8,54.8,62.9,58.5,53.6,100,90,64,29.97,29.84,13,5,13,0.01
2013-2-6,69.2,61.7,55.6,62.0,58.8,54.5,97,90,71,29.98,29.84,22,11,22,0.00
2013-2-7,76.2,62.9,55.1,62.2,55.5,45.8,97,79,35,30.04,29.77,28,13,28,0.01
2013-2-8,62.9,53.4,43.1,49.3,38.5,29.0,82,59,31,30.21,30.04,22,8,22,0.00
2013-2-9,60.6,49.7,45.0,59.4,47.8,42.3,98,93,83,30.11,29.74,25,14,25,0.04
2013-2-10,68.0,60.3,53.5,65.2,42.6,31.1,98,56,31,29.97,29.63,34,10,35,0.26
2013-2-11,55.4,49.2,46.1,44.4,41.1,35.5,90,74,47,30.13,29.96,20,6,20,0.06
2013-2-12,52.1,47.4,43.3,49.2,45.3,40.3,97,93,86,30.00,29.82,27,7,27,0.34
2013-2-13,54.4,44.4,39.3,40.2,37.2,35.2,89,77,52,30.15,30.00,28,8,28,0.00
2013-2-14,66.3,51.6,39.2,44.5,38.7,34.2,89,64,32,30.10,29.98,20,8,20,0.00
2013-2-15,50.3,46.3,38.5,40.1,32.0,23.3,73,58,40,30.36,30.05,24,9,24,0.00
2013-2-16,55.5,43.0,31.7,31.1,26.9,22.8,71,54,34,30.41,30.17,12,5,12,0.00
2013-2-17,62.1,44.6,38.7,35.7,32.5,30.1,72,64,36,30.17,30.09,29,10,29,0.00
2013-2-18,77.6,62.2,51.8,59.2,47.0,33.8,83,61,25,30.08,29.73,31,15,35,0.00
2013-2-19,60.4,51.1,39.9,34.2,29.8,24.6,69,46,27,30.30,30.08,18,7,18,0.00
2013-2-20,52.7,46.5,43.2,41.4,37.6,31.8,89,72,45,30.14,29.75,25,11,25,0.13
2013-2-21,69.2,55.6,47.3,53.6,41.2,28.0,97,64,22,29.88,29.60,26,12,27,0.11
2013-2-22,48.0,41.2,33.7,40.5,30.7,24.9,85,67,48,30.10,29.88,20,9,20,0.00
2013-2-23,54.7,42.5,30.9,32.8,29.1,25.2,80,60,42,30.07,29.91,18,5,18,0.00
2013-2-24,68.3,53.0,37.3,47.8,39.6,29.8,84,63,34,29.91,29.59,26,12,26,0.00
2013-2-25,59.7,52.2,40.6,54.9,40.5,29.7,90,66,37,29.65,29.45,33,18,33,0.01
2013-2-26,57.1,47.3,39.7,35.6,32.9,31.3,75,59,40,29.88,29.65,33,12,33,0.00
2013-2-27,56.5,46.2,36.1,34.9,29.2,22.1,85,55,27,30.20,29.86,28,11,28,0.00
2013-2-28,57.4,45.2,33.9,31.5,27.3,24.3,79,52,31,30.28,30.15,24,11,24,0.00
2013-3-1,54.5,44.0,34.0,32.3,28.9,24.7,72,56,38,30.28,30.16,20,6,20,0.00
2013-3-2,52.6,41.1,29.5,29.6,24.5,19.4,81,54,33,30.42,30.23,25,8,25,0.00
2013-3-3,67.8,53.3,34.8,44.8,32.6,23.3,66,47,32,30.23,29.81,33,16,33,0.00
2013-3-4,78.0,65.5,55.3,57.1,50.0,44.0,78,59,39,29.81,29.59,40,20,40,0.00
2013-3-5,64.9,50.8,42.1,55.6,28.8,20.1,72,44,26,30.34,29.70,40,17,40,0.00
2013-3-6,58.9,47.1,34.4,27.9,23.9,18.5,64,42,24,30.44,30.19,20,6,20,0.00
2013-3-7,68.3,54.3,39.5,39.1,32.6,22.1,73,46,23,30.23,30.08,27,10,27,0.00
2013-3-8,62.8,57.4,51.4,57.2,51.4,38.9,88,80,58,30.17,29.98,22,12,22,0.01
2013-3-9,70.8,65.3,59.6,64.6,60.2,55.0,92,84,76,29.98,29.57,50,20,50,0.18
2013-3-10,63.8,52.5,39.9,61.5,41.5,31.5,95,67,51,30.06,29.68,30,12,30,0.47
2013-3-11,58.9,45.5,34.2,31.9,26.6,18.1,84,52,24,30.11,29.99,22,7,22,0.00
2013-3-12,67.3,53.0,38.9,35.3,30.5,24.3,70,43,27,30.28,30.02,20,6,20,0.00
2013-3-13,67.0,55.5,43.8,41.0,36.4,31.3,71,50,32,30.42,30.28,15,5,15,0.00
2013-3-14,73.6,60.0,46.0,49.0,42.6,34.8,71,54,39,30.34,30.15,26,10,27,0.00
2013-3-15,77.6,65.7,54.6,54.9,50.0,44.7,87,60,34,30.15,29.88,32,16,32,0.00
2013-3-16,78.8,67.9,58.0,61.3,56.2,51.1,89,68,47,29.88,29.67,33,19,33,0.00
2013-3-17,76.3,68.6,62.5,62.6,59.8,53.0,87,74,57,29.76,29.61,33,10,33,0.00
2013-3-18,71.7,64.8,55.4,64.8,53.9,41.7,94,69,49,29.96,29.63,28,11,28,0.00
2013-3-19,67.5,56.8,43.1,47.6,42.2,36.8,85,60,43,30.06,29.93,22,7,22,0.00
2013-3-20,66.7,57.0,45.0,40.5,35.4,30.4,73,47,27,30.27,30.01,20,6,20,0.00
2013-3-21,68.7,59.1,47.8,58.8,45.1,32.1,82,60,45,30.01,29.55,40,16,40,0.00
2013-3-22,68.5,57.1,46.7,63.6,52.8,45.1,95,86,62,29.81,29.54,26,12,26,0.00
2013-3-23,60.0,51.2,46.5,53.9,48.2,44.9,96,90,76,29.86,29.65,26,7,26,0.01
2013-3-24,51.4,45.1,38.6,48.9,31.6,23.3,93,61,40,30.16,29.78,32,17,32,0.01
2013-3-25,53.1,42.5,30.9,26.4,22.1,19.3,70,46,28,30.39,30.16,32,10,32,0.00
2013-3-26,57.2,44.3,31.9,28.0,23.0,18.0,60,44,31,30.50,30.29,13,4,13,0.00
2013-3-27,68.2,53.5,36.9,43.7,34.3,24.0,65,49,34,30.31,30.08,28,13,28,0.00
2013-3-28,69.7,60.3,49.3,58.0,52.1,43.4,87,75,61,30.20,30.06,24,14,24,0.00
2013-3-29,73.1,65.8,58.0,59.6,57.6,54.8,90,76,61,30.16,30.01,24,14,24,0.00
2013-3-30,75.1,66.4,55.9,64.9,60.5,53.5,97,82,65,30.08,29.85,33,10,33,0.64
2013-3-31,73.8,66.9,61.7,63.8,59.7,54.7,94,79,58,29.95,29.78,23,9,23,0.08
2013-4-1,78.0,66.9,56.2,57.4,54.0,50.6,88,65,41,30.04,29.89,15,3,15,0.00
2013-4-2,69.8,64.1,52.7,63.6,59.7,45.3,96,86,72,29.98,29.82,29,10,29,0.81
2013-4-3,52.6,47.9,45.0,48.7,45.8,43.7,96,93,76,30.12,29.89,26,11,26,0.12
2013-4-4,49.5,45.6,41.9,43.7,41.8,40.1,96,87,74,30.18,30.08,22,8,22,0.00
2013-4-5,66.3,53.9,40.5,51.2,45.1,38.5,93,74,51,30.23,30.01,13,5,13,0.00
2013-4-6,72.8,62.6,52.6,59.6,53.7,48.1,88,73,58,30.01,29.81,34,15,35,0.00
2013-4-7,73.2,66.6,60.1,63.2,60.0,56.1,90,80,69,29.89,29.73,33,16,33,0.00
2013-4-8,75.0,70.1,64.7,66.0,62.9,57.9,85,78,72,29.75,29.63,31,19,31,0.00
2013-4-9,81.6,73.5,66.1,68.2,65.7,63.0,94,77,59,29.69,29.59,36,19,36,0.00
2013-4-10,72.8,48.7,39.6,69.3,45.9,37.6,96,90,74,29.93,29.65,29,14,29,0.56
2013-4-11,62.9,48.8,38.3,42.0,37.0,31.7,91,66,41,29.96,29.80,18,5,18,0.03
2013-4-12,73.8,60.2,46.0,52.7,45.9,39.1,85,61,37,29.97,29.85,15,4,15,0.00
2013-4-13,74.5,64.3,52.2,56.2,50.4,45.3,85,62,45,29.97,29.76,22,9,22,0.00
2013-4-14,77.0,67.0,55.5,66.4,59.4,51.0,92,77,62,29.76,29.53,28,13,28,0.00
2013-4-15,82.4,74.5,67.7,70.6,67.0,65.1,93,78,60,29.73,29.59,30,16,30,0.00
2013-4-16,86.0,76.3,70.1,71.1,67.8,65.1,88,76,56,29.86,29.73,26,15,26,0.00
2013-4-17,83.2,76.6,72.0,71.3,69.5,67.2,93,79,63,29.84,29.60,38,22,38,0.00
2013-4-18,74.9,55.9,45.0,71.0,48.9,36.0,95,78,56,30.12,29.53,33,17,33,1.28
2013-4-19,61.7,49.7,38.4,36.2,32.5,26.5,85,55,29,30.26,30.11,26,8,26,0.00
2013-4-20,68.3,56.9,45.0,41.6,36.3,31.1,69,48,28,30.19,30.00,34,12,34,0.00
2013-4-21,69.2,58.2,44.0,53.8,47.8,38.6,91,69,53,30.17,30.04,22,7,22,0.00
2013-4-22,76.0,64.4,51.3,61.1,55.0,46.9,87,73,56,30.08,29.82,30,11,30,0.00
2013-4-23,67.2,56.0,44.0,64.8,51.9,39.1,97,86,75,30.13,29.78,28,14,28,0.02
2013-4-24,60.6,49.2,39.8,44.0,39.0,34.1,92,69,47,30.29,30.12,25,10,25,0.05
2013-4-25,70.8,59.8,49.0,50.8,44.9,38.5,74,59,41,30.32,30.13,18,7,18,0.00
2013-4-26,76.1,66.9,57.4,67.5,57.5,44.9,83,72,54,30.13,29.95,25,10,25,0.00
2013-4-27,74.4,69.2,60.5,66.6,61.8,56.0,94,78,59,30.05,29.94,26,8,27,0.00
2013-4-28,79.2,65.9,53.2,66.8,60.1,51.8,100,83,60,30.02,29.83,15,4,15,0.00
2013-4-29,80.8,71.8,59.7,67.6,62.8,58.0,96,74,54,29.88,29.75,22,9,22,0.00
2013-4-30,79.8,68.9,58.4,66.9,62.4,57.0,97,81,55,29.81,29.70,20,8,20,0.00
2013-5-1,80.1,69.5,60.7,68.5,64.3,59.8,98,85,65,29.91,29.75,15,5,15,0.00
2013-5-2,67.5,52.6,43.1,62.5,48.1,37.2,94,85,74,30.29,29.89,32,16,32,0.03
2013-5-3,64.1,52.5,38.6,38.1,33.2,27.6,82,52,28,30.27,30.00,32,14,32,0.00
2013-5-4,73.0,58.9,44.8,39.5,35.7,32.5,65,45,24,30.00,29.85,28,9,28,0.00
2013-5-5,67.3,55.3,43.0,47.9,43.0,38.4,84,65,46,30.12,29.98,21,6,21,0.00
2013-5-6,76.0,63.4,49.7,55.6,50.8,45.4,86,65,46,30.09,29.96,16,4,16,0.00
2013-5-7,82.3,71.0,57.8,57.4,54.7,51.7,83,58,37,30.03,29.89,14,4,14,0.00
2013-5-8,84.5,72.4,58.4,61.7,57.8,53.4,87,62,41,29.97,29.83,29,10,29,0.00
2013-5-9,70.9,68.1,64.6,68.9,64.4,58.6,96,88,71,29.94,29.78,20,9,20,0.50
2013-5-10,78.8,70.4,63.9,67.6,64.9,62.7,97,84,61,29.98,29.82,15,4,15,0.00
2013-5-11,78.2,69.3,59.7,64.5,54.4,47.9,89,62,36,30.11,29.96,24,8,24,0.00
2013-5-12,76.1,66.6,55.8,53.8,45.6,38.7,74,49,28,30.23,30.10,16,6,16,0.00
2013-5-13,84.0,71.0,56.8,54.3,48.6,43.3,69,47,30,30.21,30.08,20,8,20,0.00
2013-5-14,83.7,73.5,59.7,65.0,58.7,52.0,91,62,38,30.13,29.95,26,12,27,0.00
2013-5-15,74.8,70.8,67.7,70.1,67.3,64.9,96,89,76,30.02,29.74,29,16,29,0.18
2013-5-16,80.1,70.2,62.0,72.2,66.7,60.4,97,89,75,29.85,29.71,37,11,37,0.67
2013-5-17,88.7,79.3,71.5,75.2,72.4,69.5,95,80,60,29.83,29.72,24,11,24,0.00
2013-5-18,90.3,80.3,71.1,75.2,71.0,67.6,91,74,56,29.86,29.71,31,17,31,0.00
2013-5-19,89.8,79.6,69.9,72.6,69.3,65.5,91,72,52,29.81,29.65,36,19,36,0.00
2013-5-20,89.1,80.2,73.3,73.0,70.7,66.5,88,74,55,29.78,29.58,66,21,66,0.00
2013-5-21,84.9,72.7,61.6,73.0,67.5,59.8,96,85,64,29.84,29.61,36,14,36,0.97
2013-5-22,83.5,68.9,55.5,66.3,61.4,54.7,98,80,48,29.91,29.79,12,3,12,0.01
2013-5-23,84.0,76.6,67.2,73.7,70.7,64.1,97,83,65,30.00,29.84,20,8,20,0.00
2013-5-24,84.0,75.8,66.6,73.6,70.7,63.3,97,85,66,30.14,29.94,26,8,26,0.37
2013-5-25,81.0,71.6,66.7,72.4,68.5,65.2,97,90,74,30.11,30.00,24,7,24,0.03
2013-5-26,86.8,77.9,70.8,73.1,70.5,68.6,96,79,57,30.04,29.89,29,13,29,0.06
2013-5-27,86.5,78.6,71.1,71.5,69.4,67.7,91,75,57,29.95,29.76,30,15,30,0.00
2013-5-28,86.2,78.7,71.4,70.5,68.2,65.3,89,71,52,29.85,29.72,33,17,33,0.00
2013-5-29,83.8,75.9,73.0,73.5,70.6,68.7,93,84,68,29.78,29.67,38,18,38,0.22
2013-5-30,87.7,80.1,73.9,75.0,72.6,70.4,91,79,64,29.78,29.65,20,12,31,0.00
2013-5-31,90.1,82.0,76.2,74.9,73.2,72.1,89,76,57,29.80,29.63,17,12,28,0.00
2013-6-1,89.9,80.9,75.6,76.6,72.9,68.5,87,77,61,29.89,29.69,21,11,29,0.00
2013-6-2,82.8,74.4,66.1,68.3,60.4,51.8,90,64,37,30.01,29.88,21,6,21,0.06
2013-6-3,86.8,70.7,60.6,62.5,58.9,55.5,88,69,39,29.95,29.83,16,4,16,0.00
2013-6-4,91.1,85.8,79.4,71.3,69.6,66.8,74,59,46,29.88,29.73,26,15,27,0.00
2013-6-5,90.8,81.3,70.4,71.6,69.3,67.2,92,68,48,29.88,29.68,34,9,34,0.00
2013-6-6,77.4,72.3,67.2,70.0,67.9,65.0,97,87,72,29.90,29.73,32,5,36,0.64
2013-6-7,82.9,72.8,62.8,65.2,60.0,54.0,94,68,38,29.96,29.84,17,6,17,0.02
2013-6-8,87.2,75.7,63.5,65.3,61.3,58.1,87,63,43,29.90,29.75,20,7,20,0.00
2013-6-9,89.0,78.0,69.8,71.5,68.8,64.9,92,75,51,29.89,29.80,21,6,21,0.00
2013-6-10,96.8,83.1,70.1,72.4,68.4,64.1,92,64,38,29.93,29.84,18,8,18,0.00
2013-6-11,93.7,82.8,73.5,74.7,71.5,69.0,94,70,48,29.98,29.87,23,11,23,0.00
2013-6-12,93.4,83.4,73.6,74.0,71.7,68.4,96,70,46,30.01,29.88,24,10,24,0.00
2013-6-13,95.7,85.6,74.9,74.3,71.6,68.4,88,65,43,30.01,29.84,18,6,18,0.00
2013-6-14,96.1,85.5,74.5,73.3,71.0,68.6,84,63,43,29.93,29.82,15,4,15,0.00
2013-6-15,91.1,82.2,73.0,75.8,72.2,68.7,91,73,58,29.95,29.83,32,7,32,0.00
2013-6-16,94.9,84.6,74.4,74.3,71.0,65.4,95,67,40,29.97,29.82,17,7,17,0.00
2013-6-17,94.2,83.0,69.7,74.7,71.4,66.2,93,70,47,30.00,29.80,30,8,30,0.04
2013-6-18,85.1,77.1,72.9,75.1,70.4,63.6,92,81,57,29.95,29.82,26,4,27,0.09
2013-6-19,91.1,78.3,68.8,76.2,71.4,67.7,97,81,55,29.94,29.84,31,5,31,0.33
2013-6-20,95.2,84.6,75.4,74.0,71.1,67.4,90,67,41,30.00,29.87,26,12,26,0.03
2013-6-21,95.5,85.2,74.1,74.2,70.2,65.2,91,63,38,30.02,29.90,24,13,24,0.00
2013-6-22,95.2,84.8,74.0,73.5,70.3,66.4,88,64,41,29.99,29.83,26,13,26,0.00
2013-6-23,94.8,85.3,74.9,73.8,69.8,64.5,90,62,38,29.94,29.83,30,14,30,0.00
2013-6-24,95.6,85.7,75.6,73.8,69.9,66.5,87,61,41,29.98,29.83,27,14,27,0.00
2013-6-25,97.6,87.0,76.6,74.2,69.6,65.4,86,59,36,29.94,29.78,29,16,29,0.00
2013-6-26,97.8,87.1,76.0,73.2,70.2,65.5,86,59,41,29.92,29.80,28,14,28,0.00
2013-6-27,99.2,87.9,77.4,73.9,69.7,64.1,84,57,34,29.97,29.80,21,9,21,0.00
2013-6-28,102.6,88.9,78.5,72.3,68.9,65.2,75,54,31,29.89,29.74,18,8,18,0.00
2013-6-29,98.7,86.2,77.2,71.6,65.6,60.5,67,52,31,29.82,29.72,13,4,22,0.00
2013-6-30,90.5,83.1,71.7,65.3,59.7,56.3,77,46,32,29.88,29.75,22,8,22,0.00
2013-7-1,86.0,76.9,67.4,62.3,58.9,55.7,74,55,37,29.96,29.87,20,8,20,0.00
2013-7-2,87.2,77.6,66.2,60.7,55.2,49.6,72,48,29,30.03,29.94,26,6,27,0.00
2013-7-3,91.3,79.3,67.6,62.0,54.0,49.9,61,43,27,30.00,29.88,18,3,18,0.00
2013-7-4,95.5,80.7,68.7,66.9,61.6,55.9,79,55,28,29.96,29.83,22,7,22,0.00
2013-7-5,94.9,81.5,67.2,66.6,62.2,58.3,82,55,31,29.95,29.80,20,7,20,0.00
2013-7-6,94.9,83.5,69.7,69.7,64.0,59.4,82,54,34,29.90,29.79,22,8,22,0.00
2013-7-7,96.2,84.4,70.9,73.3,68.4,62.4,82,60,40,29.94,29.84,25,8,25,0.00
2013-7-8,92.9,84.0,75.6,73.5,71.4,68.2,87,67,48,30.04,29.92,25,10,25,0.00
2013-7-9,98.3,87.5,77.2,74.0,68.8,63.7,86,57,34,30.08,29.92,21,10,21,0.00
2013-7-10,100.5,89.9,79.5,73.5,69.5,64.9,79,54,33,30.01,29.84,21,10,21,0.00
2013-7-11,100.7,85.7,77.7,75.9,71.6,67.2,90,65,36,29.92,29.82,25,8,25,0.19
2013-7-12,99.8,85.6,72.2,74.1,70.4,65.5,95,65,35,29.92,29.81,17,4,17,0.00
2013-7-13,99.2,87.1,76.0,72.2,68.4,60.0,83,56,33,29.94,29.81,20,7,20,0.00
2013-7-14,79.5,71.7,67.6,70.1,65.7,59.9,95,83,52,29.96,29.83,12,3,12,0.29
2013-7-15,74.1,70.4,66.1,72.7,68.8,64.6,97,95,86,30.04,29.92,13,4,13,0.94
2013-7-16,88.1,75.8,70.6,74.1,71.3,67.2,96,87,59,30.15,30.02,34,7,35,0.16
2013-7-17,88.5,76.3,70.5,75.5,72.1,68.8,98,88,59,30.17,30.07,34,5,35,0.57
2013-7-18,92.2,80.9,71.9,75.6,72.2,68.8,96,77,49,30.14,29.95,17,2,17,0.10
2013-7-19,91.1,79.9,74.7,73.3,71.4,68.0,93,77,50,30.00,29.87,25,7,25,0.00
2013-7-20,92.0,80.2,71.7,75.1,72.3,70.2,96,78,51,29.94,29.80,23,6,23,0.00
2013-7-21,94.7,82.9,72.7,75.8,72.4,67.5,96,73,42,29.89,29.80,26,9,26,0.00
2013-7-22,95.7,86.1,77.6,75.9,73.7,70.0,90,69,44,29.93,29.80,25,12,25,0.00
2013-7-23,96.7,86.9,78.2,77.8,72.5,61.8,89,65,33,29.93,29.77,25,12,25,0.00
2013-7-24,96.6,84.8,78.0,75.5,72.6,67.7,86,68,48,29.98,29.80,21,8,21,0.00
2013-7-25,96.2,83.5,73.1,76.8,73.0,70.1,93,73,47,29.99,29.91,21,5,21,0.00
2013-7-26,94.2,84.3,78.8,74.8,72.8,71.5,83,69,53,29.96,29.76,29,10,29,0.14
2013-7-31,103.8,93.0,79.6,79.6,74.0,70.1,83,56,39,30.01,29.84,4,0,0,0.16
2013-8-1,103.1,88.6,77.1,77.4,69.1,63.1,83,57,29,29.94,29.81,23,3,23,0.00
2013-8-2,100.3,88.6,79.2,71.6,68.5,63.8,76,54,31,29.90,29.81,20,7,20,0.00
2013-8-3,98.7,88.5,78.1,73.2,67.4,62.2,77,52,31,29.95,29.86,13,6,20,0.00
2013-8-4,98.3,88.4,79.2,74.3,69.4,64.3,78,56,35,30.02,29.87,14,5,23,0.00
2013-8-5,100.5,90.3,80.4,72.4,66.5,59.3,70,48,27,29.95,29.79,13,6,20,0.00
2013-8-6,101.8,91.1,78.3,72.0,66.5,57.1,78,47,25,29.86,29.72,17,7,24,0.00
2013-8-7,102.8,90.3,77.5,73.6,68.4,61.6,83,52,28,29.85,29.70,22,11,22,0.00
2013-8-8,102.1,89.8,76.9,74.2,66.9,57.8,87,51,27,29.84,29.70,20,9,20,0.00
2013-8-9,103.3,89.9,76.7,72.7,60.2,47.8,78,42,17,29.89,29.78,21,8,21,0.00
2013-8-10,100.7,88.3,74.4,73.0,66.8,56.9,74,51,33,29.98,29.87,25,4,25,0.00
2013-8-11,100.7,87.1,73.6,73.3,69.6,65.5,89,59,33,30.02,29.88,18,6,18,0.00
2013-8-12,98.8,87.6,75.9,73.6,69.0,64.3,86,57,34,30.00,29.85,18,6,20,0.00
2013-8-13,99.4,84.4,77.2,75.1,71.1,66.0,90,66,36,29.95,29.82,33,8,33,0.20
2013-8-14,90.8,79.2,72.4,76.1,73.4,70.7,96,84,53,29.96,29.86,25,5,25,0.75
2013-8-15,89.7,78.5,70.9,74.1,67.4,63.6,94,71,46,30.01,29.90,15,5,15,0.00
2013-8-16,88.8,77.9,70.0,67.4,63.8,61.8,82,63,41,30.01,29.90,16,5,16,0.00
2013-8-17,89.5,76.8,63.5,62.2,59.6,57.1,86,58,35,30.04,29.91,16,5,16,0.00
2013-8-18,90.8,79.0,66.1,67.0,60.2,55.5,81,55,33,30.05,29.93,18,4,18,0.00
2013-8-19,96.1,82.0,68.3,66.4,60.1,56.1,81,51,27,30.02,29.87,17,4,17,0.00
2013-8-20,94.6,83.1,68.6,66.7,61.4,57.6,81,50,31,30.00,29.89,23,5,23,0.00
2013-8-21,95.0,84.1,72.5,70.6,65.7,59.8,81,56,34,30.04,29.92,18,6,18,0.00
2013-8-22,98.9,87.4,76.4,72.6,68.2,64.2,80,55,35,30.04,29.87,22,6,22,0.00
2013-8-23,99.6,87.7,75.8,73.7,67.7,61.0,82,54,31,29.98,29.83,17,5,17,0.00
2013-8-24,98.9,86.3,75.1,72.3,68.1,60.9,83,57,30,30.00,29.89,24,6,24,0.00
2013-8-25,95.5,85.0,72.5,71.2,67.2,63.0,85,58,36,30.08,29.98,25,8,25,0.00
2013-8-26,94.2,83.2,72.6,71.5,67.9,60.0,88,63,34,30.11,29.98,34,13,35,0.00
2013-8-27,94.5,81.8,72.3,72.3,68.7,62.3,93,67,37,30.07,29.96,20,8,20,0.00
2013-8-28,99.2,85.0,70.6,72.2,66.6,62.5,87,58,31,30.06,29.92,17,4,17,0.00
2013-8-29,102.9,89.6,76.3,68.4,64.5,59.7,73,46,26,30.02,29.88,14,3,14,0.00
2013-8-30,103.0,89.5,73.6,69.2,63.7,58.4,78,46,24,29.95,29.80,20,6,20,0.00
2013-8-31,102.5,90.4,77.5,72.2,65.8,60.1,82,48,27,29.85,29.72,20,8,20,0.00
2013-9-1,103.4,90.8,80.7,70.6,66.9,60.9,69,48,26,29.84,29.70,18,8,18,0.00
2013-9-2,93.3,83.9,77.9,74.6,69.9,66.2,85,64,44,29.94,29.79,17,3,17,0.01
2013-9-3,99.4,86.9,74.5,71.8,66.4,60.6,86,54,29,29.93,29.80,16,4,16,0.00
2013-9-4,101.0,87.2,72.6,71.2,66.2,59.8,86,53,27,29.98,29.86,21,5,24,0.00
2013-9-5,100.6,86.8,73.9,71.8,66.9,59.1,86,55,27,30.05,29.92,22,5,22,0.00
2013-9-6,98.6,86.3,75.2,72.1,66.3,62.7,82,54,32,30.02,29.89,16,3,16,0.00
2013-9-7,98.4,85.3,74.2,72.5,66.9,56.1,83,57,27,29.99,29.84,33,7,33,0.00
2013-9-8,95.5,82.9,68.7,71.8,66.0,59.6,91,61,31,29.95,29.81,21,7,21,0.00
2013-9-9,94.1,82.6,70.0,71.1,67.0,61.0,90,62,37,29.96,29.85,32,8,32,0.00
2013-9-10,91.5,81.6,71.8,74.0,66.7,56.3,89,64,33,30.04,29.93,28,9,28,0.00
2013-9-11,93.8,81.4,70.4,74.0,68.2,63.4,88,66,39,30.07,29.93,24,6,24,0.02
2013-9-12,96.5,85.2,73.6,70.4,65.6,59.6,80,55,31,30.03,29.85,16,4,16,0.00
2013-9-13,97.8,85.4,73.1,69.9,66.2,61.1,81,55,34,29.91,29.76,31,4,31,0.00
2013-9-14,93.8,84.0,75.0,67.2,64.0,61.5,75,53,37,29.92,29.80,22,10,22,0.00
2013-9-15,94.1,83.4,71.7,69.8,64.1,60.3,70,53,38,29.98,29.88,20,7,20,0.00
2013-9-16,94.6,84.8,73.1,72.7,65.0,56.0,84,54,33,30.03,29.91,24,5,24,0.00
2013-9-17,94.0,85.5,76.2,69.1,64.9,60.9,69,51,34,30.02,29.88,20,6,20,0.00
2013-9-18,95.5,86.0,76.2,72.1,65.5,57.3,73,52,29,29.97,29.81,24,9,24,0.00
2013-9-19,88.8,80.7,74.2,74.9,71.2,67.2,97,74,57,29.94,29.80,37,6,37,0.21
2013-9-20,74.6,72.4,70.0,73.9,71.4,68.6,98,97,93,29.87,29.75,21,7,21,2.96
2013-9-21,83.7,72.1,62.2,68.8,54.8,45.3,94,59,27,29.93,29.80,18,8,18,0.00
2013-9-22,82.3,70.7,58.0,57.7,52.3,47.3,84,55,31,29.90,29.75,17,4,17,0.00
2013-9-23,85.5,72.5,59.0,62.5,55.9,51.7,85,59,33,29.83,29.70,18,4,20,0.00
2013-9-24,92.0,79.4,65.7,68.5,59.2,49.8,86,55,28,29.88,29.78,14,4,16,0.00
2013-9-25,94.7,79.9,63.5,56.7,50.3,45.8,62,37,21,29.85,29.72,12,4,12,0.00
2013-9-26,92.3,79.4,64.5,61.4,57.1,51.8,74,49,29,29.84,29.74,24,8,24,0.00
2013-9-27,86.5,78.2,64.7,72.8,67.4,59.3,88,70,54,29.90,29.80,25,11,25,0.00
2013-9-28,82.6,75.7,66.7,76.7,71.9,65.5,97,88,75,29.98,29.83,28,11,28,1.26
2013-9-29,82.5,71.1,63.8,65.4,60.0,52.0,96,71,41,30.00,29.87,15,5,15,0.00
2013-9-30,85.6,75.1,64.8,66.9,58.7,49.6,84,59,35,29.89,29.76,16,4,16,0.00
2013-10-1,88.3,77.4,66.7,71.9,69.0,64.3,98,78,47,29.90,29.79,18,8,18,0.00
2013-10-2,85.3,77.6,72.3,73.5,71.3,69.2,96,82,62,29.94,29.82,26,12,26,0.00
2013-10-3,88.5,79.4,72.8,73.8,71.5,68.1,95,78,53,29.90,29.77,26,13,27,0.00
2013-10-4,87.7,79.5,73.6,72.8,70.4,67.7,93,75,53,29.87,29.78,25,13,25,0.00
2013-10-5,79.3,65.7,52.9,72.3,59.7,44.3,93,81,60,30.06,29.82,32,11,32,0.00
2013-10-6,73.3,61.7,50.5,51.4,42.3,31.7,93,56,22,30.10,29.99,22,7,22,0.00
2013-10-7,80.7,68.0,55.4,45.2,39.4,32.5,56,37,19,30.12,30.01,14,3,14,0.00
2013-10-8,80.2,66.6,54.1,52.8,45.7,38.1,73,49,28,30.08,29.95,14,4,14,0.00
2013-10-9,80.7,66.9,53.2,60.4,54.4,50.8,92,67,39,30.05,29.94,20,6,20,0.00
2013-10-10,81.9,70.1,55.9,63.4,59.2,53.8,94,70,47,30.02,29.85,22,9,22,0.00
2013-10-11,83.9,75.0,66.0,71.6,68.0,63.3,94,80,64,29.92,29.79,24,12,24,0.00
2013-10-12,84.4,74.5,66.6,76.4,70.8,64.4,96,89,71,30.03,29.84,23,7,24,0.13
2013-10-13,73.6,70.0,66.7,69.9,67.6,65.5,98,92,83,30.16,30.00,18,5,18,0.00
2013-10-14,73.6,71.0,68.5,72.1,69.8,67.5,98,96,92,30.09,29.89,20,10,20,0.70
2013-10-15,74.5,67.5,53.3,71.7,66.2,52.4,98,96,89,30.00,29.86,26,10,26,1.84
2013-10-16,60.5,55.2,52.2,55.6,53.5,51.9,99,94,81,30.06,29.95,18,7,18,0.72
2013-10-17,70.9,58.8,47.1,54.7,48.5,43.6,95,71,40,30.11,29.96,12,3,12,0.00
2013-10-18,69.8,60.9,50.5,57.4,52.8,48.8,97,76,53,30.02,29.87,24,6,24,0.00
2013-10-19,63.0,53.6,42.7,54.6,41.7,37.8,90,66,40,30.18,30.02,23,9,23,0.00
2013-10-20,70.1,57.2,41.9,48.0,44.1,40.1,94,64,37,30.06,29.87,24,9,25,0.00
2013-10-21,72.2,60.5,53.4,64.6,55.3,48.1,96,83,67,30.06,29.88,20,7,20,0.00
2013-10-22,74.7,59.6,45.1,50.3,43.9,37.8,91,61,28,30.14,30.00,12,5,12,0.00
2013-10-23,83.1,66.6,52.2,51.9,47.3,43.7,76,52,27,30.10,30.00,12,3,12,0.00
2013-10-24,81.0,67.1,55.3,54.7,49.5,44.8,74,56,29,30.23,30.03,13,5,14,0.00
2013-10-25,67.8,58.1,51.0,51.2,48.4,44.7,91,71,53,30.36,30.21,20,8,20,0.00
2013-10-26,75.8,63.7,53.6,63.6,56.1,48.6,97,77,65,30.21,29.99,22,10,23,1.38
2013-10-27,68.0,61.7,58.4,60.5,58.8,57.6,98,90,71,30.10,29.98,14,3,15,0.30
2013-10-28,77.7,66.7,58.0,68.9,63.2,57.1,99,89,71,30.08,29.96,20,9,20,0.00
2013-10-29,75.9,71.5,67.3,70.7,68.4,66.1,96,90,81,30.05,29.95,22,13,23,0.00
2013-10-30,71.3,67.7,64.7,68.9,66.5,63.8,99,96,90,30.01,29.77,41,17,41,0.71
2013-10-31,75.7,68.3,55.8,69.6,55.3,38.1,99,69,28,29.85,29.65,26,9,26,0.02
2013-11-1,75.6,63.1,53.1,57.6,49.8,44.8,83,63,43,30.03,29.77,25,7,25,0.00
2013-11-2,66.3,58.0,48.5,45.3,38.9,32.5,79,51,30,30.25,30.03,22,7,22,0.00
2013-11-3,65.2,55.5,43.3,47.6,41.6,35.4,79,61,43,30.19,29.96,26,10,26,0.00
2013-11-4,60.4,56.6,51.6,59.8,53.5,45.7,98,90,70,30.08,29.97,25,10,25,0.85
2013-11-5,68.9,64.9,60.4,67.7,64.0,59.8,99,97,95,30.02,29.89,21,12,23,0.34
2013-11-6,69.3,55.6,43.9,68.7,51.9,40.3,98,87,62,30.33,29.92,31,9,32,0.25
2013-11-7,61.1,50.3,39.7,43.7,39.3,36.4,92,69,41,30.48,30.33,13,4,13,0.00
2013-11-8,63.7,55.0,45.1,46.7,42.7,37.1,83,64,42,30.37,30.10,17,6,17,0.00
2013-11-9,66.0,58.0,54.2,52.8,48.7,44.3,85,72,61,30.20,30.09,22,10,23,0.00
2013-11-10,66.0,57.0,53.3,52.5,48.4,43.2,88,74,49,30.31,30.18,8,2,8,0.00
2013-11-11,72.3,60.0,48.4,54.7,49.8,44.1,89,70,50,30.26,30.14,10,2,10,0.00
2013-11-12,58.9,49.1,33.7,54.9,36.7,22.4,88,64,37,30.65,30.24,26,10,26,0.00
2013-11-13,51.3,39.3,28.1,28.6,25.0,22.8,83,58,36,30.67,30.36,12,3,12,0.00
2013-11-14,58.9,47.1,32.7,46.4,34.5,25.8,83,64,31,30.37,30.01,20,10,20,0.00
2013-11-15,70.2,59.9,52.3,59.1,53.7,46.5,90,80,63,30.02,29.81,18,10,18,0.00
2013-11-16,74.5,68.5,60.8,69.7,64.9,58.2,95,88,79,29.84,29.66,26,14,29,0.00
2013-11-17,86.9,75.7,63.7,71.4,60.1,42.8,91,63,27,29.95,29.68,25,9,25,0.00
2013-11-18,73.3,62.4,53.5,43.7,38.4,32.8,56,42,26,30.13,29.95,18,7,18,0.00
2013-11-19,66.4,58.0,49.4,42.3,38.0,30.8,66,49,28,30.15,29.99,25,9,25,0.00
2013-11-20,62.9,55.1,43.9,55.7,44.5,36.4,80,68,54,30.01,29.88,22,10,22,0.00
2013-11-21,72.4,65.0,45.7,69.8,63.1,44.6,98,94,80,30.11,29.92,29,11,29,1.52
2013-11-22,45.5,36.8,34.5,44.7,36.0,33.7,98,97,95,30.41,30.12,30,15,30,0.25
2013-11-23,41.1,37.4,35.1,38.5,35.5,31.3,98,93,80,30.51,30.39,22,11,22,0.11
2013-11-24,36.9,33.9,32.8,31.0,27.4,24.9,85,77,66,30.56,30.35,20,8,20,0.02
2013-11-25,36.6,34.4,31.6,35.5,33.1,28.6,98,95,84,30.35,30.12,15,5,15,0.61
2013-11-26,50.7,40.8,34.7,36.6,32.9,28.1,96,75,48,30.33,30.10,28,13,28,0.00
2013-11-27,45.4,36.6,27.8,28.4,20.9,16.9,78,54,34,30.45,30.33,22,6,22,0.00
2013-11-28,51.7,40.0,30.1,30.4,26.5,20.8,84,60,38,30.45,30.34,21,4,21,0.00
2013-11-29,55.9,43.8,31.2,41.6,34.7,28.1,91,71,45,30.51,30.34,14,6,14,0.00
2013-11-30,64.5,52.8,40.9,53.0,44.4,34.5,91,74,57,30.35,30.15,23,8,23,0.00
2013-12-1,68.2,59.9,48.0,58.4,55.4,46.5,97,86,68,30.15,29.86,23,8,25,0.00
2013-12-2,69.3,57.1,46.7,55.6,50.1,43.8,98,80,43,29.86,29.64,13,4,13,0.00
2013-12-3,77.1,60.9,42.5,52.1,46.8,38.3,98,65,28,29.65,29.49,16,6,16,0.00
2013-12-4,75.7,64.2,53.0,64.2,57.2,44.1,95,79,65,29.80,29.57,20,8,20,0.00
2013-12-5,52.9,35.7,29.3,44.1,29.0,23.1,95,77,63,30.14,29.80,28,14,30,0.00
2013-12-6,31.7,29.3,25.7,30.7,27.8,23.2,96,94,90,30.33,30.07,17,9,17,0.02
2013-12-7,26.0,24.4,21.5,25.0,23.0,19.5,96,94,91,30.52,30.29,12,5,14,0.00
2013-12-8,35.9,31.0,25.9,34.6,30.0,25.0,97,96,93,30.28,30.04,7,1,7,0.02
2013-12-9,35.9,32.0,29.6,34.8,29.6,23.9,97,91,79,30.39,30.13,18,9,18,0.00
2013-12-10,38.9,29.6,19.5,25.8,21.8,16.9,91,73,56,30.52,30.36,16,4,16,0.00
2013-12-11,48.2,35.8,25.1,34.7,28.3,22.5,92,75,49,30.57,30.32,13,4,14,0.00
2013-12-12,48.6,37.8,26.3,34.1,29.9,24.0,92,74,55,30.60,30.31,12,3,12,0.00
2013-12-13,46.4,42.2,40.0,45.9,38.5,31.4,98,87,67,30.31,29.80,20,9,20,0.12
2013-12-14,38.9,34.9,32.1,31.2,29.2,27.4,83,80,73,30.32,30.20,30,4,30,0.01
2013-12-15,57.6,43.1,31.4,38.1,32.2,26.5,83,67,44,30.36,30.22,12,5,12,0.00
2013-12-16,64.8,49.7,37.7,40.3,35.7,32.2,81,61,36,30.25,30.13,20,8,20,0.00
2013-12-17,67.9,53.5,39.3,44.5,38.8,33.3,80,59,39,30.27,30.18,14,5,14,0.00
2013-12-18,68.0,54.4,40.1,49.3,42.7,36.8,89,67,40,30.24,29.99,26,8,26,0.00
2013-12-19,72.7,62.3,51.4,63.3,56.6,49.5,94,82,64,29.99,29.73,31,16,31,0.00
2013-12-20,70.9,60.0,36.8,65.2,56.4,35.8,97,88,66,29.82,29.71,29,10,29,0.00
2013-12-21,56.3,45.4,35.1,54.0,44.6,34.3,99,97,91,29.76,29.53,21,6,21,1.57
2013-12-22,47.0,37.7,30.3,46.5,33.2,26.1,99,84,65,30.37,29.74,22,10,22,0.00
2013-12-23,45.2,34.2,24.7,32.0,27.9,23.1,94,79,54,30.55,30.35,13,3,13,0.00
2013-12-24,51.3,37.5,24.2,36.3,30.3,23.0,95,77,53,30.53,30.26,24,8,24,0.00
2013-12-25,58.1,44.0,32.5,46.1,36.3,29.0,88,75,61,30.39,30.26,17,6,17,0.00
2013-12-26,51.7,41.3,31.1,39.0,35.2,29.6,95,80,60,30.43,30.32,9,3,9,0.00
2013-12-27,56.0,45.7,34.4,42.5,38.1,32.8,95,76,57,30.44,30.30,13,3,13,0.00
2013-12-28,58.6,48.7,39.3,42.2,38.3,33.5,92,69,47,30.31,29.95,17,5,17,0.00
2013-12-29,54.4,40.8,31.6,47.4,35.3,25.7,92,81,64,30.27,29.93,24,9,26,0.00
2013-12-30,41.3,34.2,27.6,26.6,22.8,20.9,82,64,46,30.40,30.23,18,6,18,0.00
2013-12-31,51.4,39.4,29.8,30.7,26.4,22.1,81,61,40,30.44,30.21,20,6,20,0.00
2014-1-1,66.1,48.3,32.8,51.1,39.0,29.4,89,72,50,30.21,29.88,30,13,30,0.00
2014-1-2,41.2,32.7,25.3,30.0,20.6,18.1,79,62,42,30.46,30.15,25,11,25,0.00